Time,TemperatureF,DewpointF,PressureIn,WindDirection,WindDirectionDegrees,WindSpeedMPH,WindSpeedGustMPH,Humidity,HourlyPrecipIn,Conditions,Clouds,dailyrainin,SoftwareType,DateUTC
2013-09-21 00:01:00,70.7,59.2,29.74,North,0,0.0,0.0,67,0.00,,---,0.00,VWS V14.00,2013-09-21 04:01:00,
2013-09-21 00:03:00,70.7,59.2,29.74,North,0,0.0,0.0,67,0.00,,---,0.00,VWS V14.00,2013-09-21 04:03:00,
2013-09-21 00:04:00,70.7,59.2,29.74,North,0,0.0,0.0,67,0.00,,---,0.00,VWS V14.00,2013-09-21 04:04:00,
2013-09-21 00:06:00,70.7,59.2,29.74,North,0,0.0,0.0,67,0.00,,---,0.00,VWS V14.00,2013-09-21 04:06:00,
2013-09-21 00:11:00,70.7,59.6,29.74,North,0,0.0,0.0,68,0.00,,---,0.00,VWS V14.00,2013-09-21 04:11:00,
2013-09-21 00:16:00,70.5,59.5,29.74,North,0,0.0,0.0,68,0.00,,---,0.00,VWS V14.00,2013-09-21 04:16:00,
2013-09-21 00:21:00,70.5,59.5,29.74,North,0,0.0,0.0,68,0.00,,---,0.00,VWS V14.00,2013-09-21 04:21:00,
2013-09-21 00:26:00,70.5,59.5,29.74,North,0,0.0,0.0,68,0.00,,---,0.00,VWS V14.00,2013-09-21 04:26:00,
2013-09-21 00:31:00,70.5,59.5,29.74,North,0,0.0,0.0,68,0.00,,---,0.00,VWS V14.00,2013-09-21 04:31:00,
2013-09-21 00:36:00,70.3,59.3,29.74,North,0,0.0,0.0,68,0.00,,---,0.00,VWS V14.00,2013-09-21 04:36:00,
2013-09-21 00:41:00,70.3,59.3,29.74,North,0,0.0,0.0,68,0.00,,---,0.00,VWS V14.00,2013-09-21 04:41:00,
2013-09-21 00:46:00,70.3,59.3,29.74,North,0,0.0,0.0,68,0.00,,---,0.00,VWS V14.00,2013-09-21 04:46:00,
2013-09-21 00:51:00,70.2,59.5,29.74,North,0,0.0,0.0,69,0.00,,---,0.00,VWS V14.00,2013-09-21 04:51:00,
2013-09-21 00:56:00,70.3,59.7,29.74,North,0,0.0,0.0,69,0.00,,---,0.00,VWS V14.00,2013-09-21 04:56:00,
2013-09-21 01:01:00,70.2,59.5,29.74,North,0,0.0,0.0,69,0.00,,---,0.00,VWS V14.00,2013-09-21 05:01:00,
2013-09-21 01:06:00,70.2,59.5,29.74,North,0,0.0,0.0,69,0.00,,---,0.00,VWS V14.00,2013-09-21 05:06:00,
2013-09-21 01:11:00,70.0,59.3,29.74,North,0,0.0,0.0,69,0.00,,---,0.00,VWS V14.00,2013-09-21 05:11:00,
2013-09-21 01:16:00,70.0,59.3,29.74,North,0,0.0,0.0,69,0.00,,---,0.00,VWS V14.00,2013-09-21 05:16:00,
2013-09-21 01:21:00,70.0,59.3,29.74,North,0,0.0,0.0,69,0.00,,---,0.00,VWS V14.00,2013-09-21 05:21:00,
2013-09-21 01:26:00,70.0,59.8,29.74,North,0,0.0,0.0,70,0.00,,---,0.00,VWS V14.00,2013-09-21 05:26:00,
2013-09-21 01:31:00,70.0,59.8,29.74,North,0,0.0,0.0,70,0.00,,---,0.00,VWS V14.00,2013-09-21 05:31:00,
2013-09-21 01:36:00,70.0,59.8,29.74,North,0,0.0,0.0,70,0.00,,---,0.00,VWS V14.00,2013-09-21 05:36:00,
2013-09-21 01:41:00,70.0,60.2,29.74,North,0,0.0,0.0,71,0.00,,---,0.00,VWS V14.00,2013-09-21 05:41:00,
2013-09-21 01:46:00,70.0,60.2,29.74,North,0,0.0,0.0,71,0.00,,---,0.00,VWS V14.00,2013-09-21 05:46:00,
2013-09-21 01:51:00,70.0,60.2,29.74,North,0,0.0,0.0,71,0.00,,---,0.00,VWS V14.00,2013-09-21 05:51:00,
2013-09-21 01:56:00,70.2,60.3,29.74,North,0,0.0,0.0,71,0.00,,---,0.00,VWS V14.00,2013-09-21 05:56:00,
2013-09-21 02:01:00,70.0,60.2,29.74,North,0,0.0,0.0,71,0.00,,---,0.00,VWS V14.00,2013-09-21 06:01:00,
2013-09-21 02:06:00,70.0,60.2,29.74,North,0,0.0,0.0,71,0.00,,---,0.00,VWS V14.00,2013-09-21 06:06:00,
2013-09-21 02:11:00,70.0,60.2,29.74,North,0,0.0,0.0,71,0.00,,---,0.00,VWS V14.00,2013-09-21 06:11:00,
2013-09-21 02:16:00,70.0,60.2,29.74,North,0,0.0,0.0,71,0.00,,---,0.00,VWS V14.00,2013-09-21 06:16:00,
2013-09-21 02:21:00,70.0,60.5,29.74,North,0,0.0,0.0,72,0.00,,---,0.00,VWS V14.00,2013-09-21 06:21:00,
2013-09-21 02:26:00,70.0,60.5,29.74,North,0,0.0,0.0,72,0.00,,---,0.00,VWS V14.00,2013-09-21 06:26:00,
2013-09-21 02:31:00,69.8,60.0,29.71,North,0,0.0,0.0,71,0.00,,---,0.00,VWS V14.00,2013-09-21 06:31:00,
2013-09-21 02:36:00,70.0,60.2,29.71,North,0,0.0,0.0,71,0.00,,---,0.00,VWS V14.00,2013-09-21 06:36:00,
2013-09-21 02:41:00,69.8,60.4,29.71,North,0,0.0,0.0,72,0.00,,---,0.00,VWS V14.00,2013-09-21 06:41:00,
2013-09-21 02:46:00,69.8,60.0,29.71,North,0,0.0,0.0,71,0.00,,---,0.00,VWS V14.00,2013-09-21 06:46:00,
2013-09-21 02:51:00,69.6,59.8,29.71,North,0,0.0,0.0,71,0.00,,---,0.00,VWS V14.00,2013-09-21 06:51:00,
2013-09-21 02:56:00,69.6,59.8,29.71,North,0,0.0,0.0,71,0.00,,---,0.00,VWS V14.00,2013-09-21 06:56:00,
2013-09-21 03:01:00,69.4,59.6,29.71,North,0,0.0,0.0,71,0.00,,---,0.00,VWS V14.00,2013-09-21 07:01:00,
2013-09-21 03:06:00,69.4,59.6,29.71,North,0,0.0,0.0,71,0.00,,---,0.00,VWS V14.00,2013-09-21 07:06:00,
2013-09-21 03:11:00,69.4,60.0,29.71,North,0,0.0,0.0,72,0.00,,---,0.00,VWS V14.00,2013-09-21 07:11:00,
2013-09-21 03:16:00,69.4,60.0,29.71,North,0,0.0,0.0,72,0.00,,---,0.00,VWS V14.00,2013-09-21 07:16:00,
2013-09-21 03:21:00,69.4,60.4,29.71,North,0,0.0,0.0,73,0.00,,---,0.00,VWS V14.00,2013-09-21 07:21:00,
2013-09-21 03:26:00,69.4,60.4,29.71,North,0,0.0,0.0,73,0.00,,---,0.00,VWS V14.00,2013-09-21 07:26:00,
2013-09-21 03:31:00,69.3,60.2,29.71,North,0,0.0,0.0,73,0.00,,---,0.00,VWS V14.00,2013-09-21 07:31:00,
2013-09-21 03:36:00,69.3,60.2,29.71,North,0,0.0,0.0,73,0.00,,---,0.00,VWS V14.00,2013-09-21 07:36:00,
2013-09-21 03:41:00,69.3,59.9,29.71,North,0,0.0,0.0,72,0.00,,---,0.00,VWS V14.00,2013-09-21 07:41:00,
2013-09-21 03:46:00,69.3,60.2,29.68,North,0,0.0,0.0,73,0.00,,---,0.00,VWS V14.00,2013-09-21 07:46:00,
2013-09-21 03:51:00,69.1,60.1,29.68,North,0,0.0,0.0,73,0.00,,---,0.00,VWS V14.00,2013-09-21 07:51:00,
2013-09-21 03:56:00,69.3,60.6,29.68,North,0,0.0,0.0,74,0.00,,---,0.00,VWS V14.00,2013-09-21 07:56:00,
2013-09-21 04:01:00,69.1,60.8,29.68,North,0,0.0,0.0,75,0.00,,---,0.00,VWS V14.00,2013-09-21 08:01:00,
2013-09-21 04:06:00,69.1,60.5,29.68,North,0,0.0,0.0,74,0.00,,---,0.00,VWS V14.00,2013-09-21 08:06:00,
2013-09-21 04:11:00,69.1,60.8,29.68,North,0,0.0,0.0,75,0.00,,---,0.00,VWS V14.00,2013-09-21 08:11:00,
2013-09-21 04:16:00,69.1,60.8,29.68,North,0,0.0,0.0,75,0.00,,---,0.00,VWS V14.00,2013-09-21 08:16:00,
2013-09-21 04:21:00,69.1,60.8,29.68,North,0,0.0,0.0,75,0.00,,---,0.00,VWS V14.00,2013-09-21 08:21:00,
2013-09-21 04:26:00,68.9,60.7,29.68,North,0,0.0,0.0,75,0.00,,---,0.00,VWS V14.00,2013-09-21 08:26:00,
2013-09-21 04:31:00,69.1,61.2,29.68,North,0,0.0,0.0,76,0.00,,---,0.00,VWS V14.00,2013-09-21 08:31:00,
2013-09-21 04:36:00,69.1,61.2,29.68,North,0,0.0,0.0,76,0.00,,---,0.00,VWS V14.00,2013-09-21 08:36:00,
2013-09-21 04:41:00,69.1,61.2,29.68,North,0,0.0,0.0,76,0.00,,---,0.00,VWS V14.00,2013-09-21 08:41:00,
2013-09-21 04:46:00,68.9,61.0,29.68,North,0,0.0,0.0,76,0.00,,---,0.00,VWS V14.00,2013-09-21 08:46:00,
2013-09-21 04:51:00,68.7,60.5,29.68,North,0,0.0,0.0,75,0.00,,---,0.00,VWS V14.00,2013-09-21 08:51:00,
2013-09-21 04:56:00,68.7,60.5,29.68,North,0,0.0,0.0,75,0.00,,---,0.00,VWS V14.00,2013-09-21 08:56:00,
2013-09-21 05:01:00,68.7,60.5,29.68,North,0,0.0,0.0,75,0.00,,---,0.00,VWS V14.00,2013-09-21 09:01:00,
2013-09-21 05:06:00,68.7,60.9,29.68,North,0,0.0,0.0,76,0.00,,---,0.00,VWS V14.00,2013-09-21 09:06:00,
2013-09-21 05:11:00,68.7,60.5,29.68,North,0,0.0,0.0,75,0.00,,---,0.00,VWS V14.00,2013-09-21 09:11:00,
2013-09-21 05:16:00,68.7,60.5,29.68,North,0,0.0,0.0,75,0.00,,---,0.00,VWS V14.00,2013-09-21 09:16:00,
2013-09-21 05:21:00,68.7,60.9,29.68,North,0,0.0,0.0,76,0.00,,---,0.00,VWS V14.00,2013-09-21 09:21:00,
2013-09-21 05:26:00,68.5,60.7,29.68,North,0,0.0,0.0,76,0.00,,---,0.00,VWS V14.00,2013-09-21 09:26:00,
2013-09-21 05:31:00,68.5,60.7,29.65,North,0,0.0,0.0,76,0.00,,---,0.00,VWS V14.00,2013-09-21 09:31:00,
2013-09-21 05:36:00,68.5,60.7,29.65,North,0,0.0,0.0,76,0.00,,---,0.00,VWS V14.00,2013-09-21 09:36:00,
2013-09-21 05:41:00,68.5,60.7,29.65,North,0,0.0,0.0,76,0.00,,---,0.00,VWS V14.00,2013-09-21 09:41:00,
2013-09-21 05:46:00,68.5,60.7,29.65,North,0,0.0,0.0,76,0.00,,---,0.00,VWS V14.00,2013-09-21 09:46:00,
2013-09-21 05:51:00,68.5,60.7,29.65,North,0,0.0,0.0,76,0.00,,---,0.00,VWS V14.00,2013-09-21 09:51:00,
2013-09-21 05:56:00,68.5,60.7,29.65,North,0,0.0,0.0,76,0.00,,---,0.00,VWS V14.00,2013-09-21 09:56:00,
2013-09-21 06:01:00,68.4,60.5,29.65,North,0,0.0,0.0,76,0.00,,---,0.00,VWS V14.00,2013-09-21 10:01:00,
2013-09-21 06:06:00,68.4,60.5,29.65,North,0,0.0,0.0,76,0.00,,---,0.00,VWS V14.00,2013-09-21 10:06:00,
2013-09-21 06:11:00,68.4,60.5,29.65,North,0,0.0,0.0,76,0.00,,---,0.00,VWS V14.00,2013-09-21 10:11:00,
2013-09-21 06:16:00,68.4,60.5,29.65,North,0,0.0,0.0,76,0.00,,---,0.00,VWS V14.00,2013-09-21 10:16:00,
2013-09-21 06:21:00,68.4,60.5,29.65,North,0,0.0,0.0,76,0.00,,---,0.00,VWS V14.00,2013-09-21 10:21:00,
2013-09-21 06:26:00,68.4,60.5,29.65,North,0,0.0,0.0,76,0.00,,---,0.00,VWS V14.00,2013-09-21 10:26:00,
2013-09-21 06:31:00,68.2,60.3,29.65,North,0,0.0,0.0,76,0.00,,---,0.00,VWS V14.00,2013-09-21 10:31:00,
2013-09-21 06:36:00,68.2,60.3,29.65,North,0,0.0,0.0,76,0.00,,---,0.00,VWS V14.00,2013-09-21 10:36:00,
2013-09-21 06:41:00,68.2,60.3,29.65,North,0,0.0,0.0,76,0.00,,---,0.00,VWS V14.00,2013-09-21 10:41:00,
2013-09-21 06:46:00,68.2,60.3,29.68,North,0,0.0,0.0,76,0.00,,---,0.00,VWS V14.00,2013-09-21 10:46:00,
2013-09-21 06:51:00,68.2,60.3,29.68,North,0,0.0,0.0,76,0.00,,---,0.00,VWS V14.00,2013-09-21 10:51:00,
2013-09-21 06:56:00,68.2,60.7,29.68,North,0,0.0,0.0,77,0.00,,---,0.00,VWS V14.00,2013-09-21 10:56:00,
2013-09-21 07:01:00,68.0,60.5,29.68,North,0,0.0,0.0,77,0.00,,---,0.00,VWS V14.00,2013-09-21 11:01:00,
2013-09-21 07:06:00,68.0,60.5,29.68,North,0,0.0,0.0,77,0.00,,---,0.00,VWS V14.00,2013-09-21 11:06:00,
2013-09-21 07:11:00,68.0,60.5,29.68,North,0,0.0,0.0,77,0.00,,---,0.00,VWS V14.00,2013-09-21 11:11:00,
2013-09-21 07:16:00,68.0,60.5,29.68,North,0,0.0,0.0,77,0.00,,---,0.00,VWS V14.00,2013-09-21 11:16:00,
2013-09-21 07:21:00,68.0,60.5,29.68,North,0,0.0,0.0,77,0.00,,---,0.00,VWS V14.00,2013-09-21 11:21:00,
2013-09-21 07:26:00,68.0,60.5,29.68,North,0,0.0,0.0,77,0.00,,---,0.00,VWS V14.00,2013-09-21 11:26:00,
2013-09-21 07:31:00,68.0,60.9,29.68,North,0,0.0,0.0,78,0.00,,---,0.00,VWS V14.00,2013-09-21 11:31:00,
2013-09-21 07:36:00,68.2,61.1,29.68,North,0,0.0,0.0,78,0.00,,---,0.00,VWS V14.00,2013-09-21 11:36:00,
2013-09-21 07:41:00,68.2,61.1,29.68,North,0,0.0,0.0,78,0.00,,---,0.00,VWS V14.00,2013-09-21 11:41:00,
2013-09-21 07:46:00,68.2,61.1,29.68,North,0,0.0,0.0,78,0.00,,---,0.00,VWS V14.00,2013-09-21 11:46:00,
2013-09-21 07:51:00,68.2,61.1,29.68,North,0,0.0,0.0,78,0.00,,---,0.00,VWS V14.00,2013-09-21 11:51:00,
2013-09-21 07:56:00,68.4,61.6,29.68,North,0,0.0,0.0,79,0.00,,---,0.00,VWS V14.00,2013-09-21 11:56:00,
2013-09-21 08:01:00,68.5,62.1,29.68,North,0,0.0,0.0,80,0.00,,---,0.00,VWS V14.00,2013-09-21 12:01:00,
2013-09-21 08:06:00,68.7,62.3,29.68,North,0,0.0,0.0,80,0.00,,---,0.00,VWS V14.00,2013-09-21 12:06:00,
2013-09-21 08:11:00,68.9,62.8,29.68,North,0,0.0,0.0,81,0.00,,---,0.00,VWS V14.00,2013-09-21 12:11:00,
2013-09-21 08:16:00,69.1,63.0,29.71,North,0,0.0,0.0,81,0.00,,---,0.00,VWS V14.00,2013-09-21 12:16:00,
2013-09-21 08:21:00,69.3,63.2,29.71,North,0,0.0,0.0,81,0.00,,---,0.00,VWS V14.00,2013-09-21 12:21:00,
2013-09-21 08:26:00,69.4,63.4,29.71,North,0,0.0,0.0,81,0.00,,---,0.00,VWS V14.00,2013-09-21 12:26:00,
2013-09-21 08:31:00,69.8,63.7,29.71,North,0,0.0,0.0,81,0.00,,---,0.00,VWS V14.00,2013-09-21 12:31:00,
2013-09-21 08:36:00,70.0,63.9,29.71,North,0,0.0,0.0,81,0.00,,---,0.00,VWS V14.00,2013-09-21 12:36:00,
2013-09-21 08:41:00,70.3,64.6,29.71,North,0,0.0,0.0,82,0.00,,---,0.00,VWS V14.00,2013-09-21 12:41:00,
2013-09-21 08:46:00,70.5,64.8,29.71,North,0,0.0,0.0,82,0.00,,---,0.00,VWS V14.00,2013-09-21 12:46:00,
2013-09-21 08:51:00,70.9,65.5,29.71,North,0,0.0,0.0,83,0.00,,---,0.00,VWS V14.00,2013-09-21 12:51:00,
2013-09-21 08:56:00,71.1,65.6,29.71,North,0,0.0,0.0,83,0.00,,---,0.00,VWS V14.00,2013-09-21 12:56:00,
2013-09-21 09:01:00,71.4,66.3,29.71,North,0,0.0,0.0,84,0.00,,---,0.00,VWS V14.00,2013-09-21 13:01:00,
2013-09-21 09:06:00,71.8,66.7,29.71,North,0,0.0,0.0,84,0.00,,---,0.00,VWS V14.00,2013-09-21 13:06:00,
2013-09-21 09:11:00,72.1,67.0,29.71,North,0,0.0,0.0,84,0.00,,---,0.00,VWS V14.00,2013-09-21 13:11:00,
2013-09-21 09:16:00,72.3,67.2,29.71,North,0,0.0,0.0,84,0.00,,---,0.00,VWS V14.00,2013-09-21 13:16:00,
2013-09-21 09:21:00,72.5,67.1,29.71,North,0,0.0,0.0,83,0.00,,---,0.00,VWS V14.00,2013-09-21 13:21:00,
2013-09-21 09:26:00,72.9,67.4,29.71,North,0,0.0,0.0,83,0.00,,---,0.00,VWS V14.00,2013-09-21 13:26:00,
2013-09-21 09:31:00,73.2,67.8,29.71,North,0,0.0,0.0,83,0.00,,---,0.00,VWS V14.00,2013-09-21 13:31:00,
2013-09-21 09:36:00,73.6,67.8,29.71,North,0,0.0,0.0,82,0.00,,---,0.00,VWS V14.00,2013-09-21 13:36:00,
2013-09-21 09:41:00,73.9,67.8,29.71,North,0,0.0,0.0,81,0.00,,---,0.00,VWS V14.00,2013-09-21 13:41:00,
2013-09-21 09:46:00,74.1,67.6,29.71,North,0,0.0,0.0,80,0.00,,---,0.00,VWS V14.00,2013-09-21 13:46:00,
2013-09-21 09:51:00,74.5,67.9,29.71,North,0,0.0,0.0,80,0.00,,---,0.00,VWS V14.00,2013-09-21 13:51:00,
2013-09-21 09:56:00,74.7,67.3,29.71,North,0,0.0,0.0,78,0.00,,---,0.00,VWS V14.00,2013-09-21 13:56:00,
2013-09-21 10:01:00,75.0,67.7,29.71,North,0,0.0,0.0,78,0.00,,---,0.00,VWS V14.00,2013-09-21 14:01:00,
2013-09-21 10:06:00,75.2,66.7,29.71,North,0,0.0,0.0,75,0.00,,---,0.00,VWS V14.00,2013-09-21 14:06:00,
2013-09-21 10:11:00,75.4,66.5,29.71,North,0,0.0,0.0,74,0.00,,---,0.00,VWS V14.00,2013-09-21 14:11:00,
2013-09-21 10:16:00,75.7,66.5,29.71,North,0,0.0,0.0,73,0.00,,---,0.00,VWS V14.00,2013-09-21 14:16:00,
2013-09-21 10:21:00,75.9,66.2,29.71,North,0,0.0,0.0,72,0.00,,---,0.00,VWS V14.00,2013-09-21 14:21:00,
2013-09-21 10:26:00,76.1,65.6,29.71,North,0,0.0,0.0,70,0.00,,---,0.00,VWS V14.00,2013-09-21 14:26:00,
2013-09-21 10:31:00,76.5,65.5,29.68,North,0,0.0,0.0,69,0.00,,---,0.00,VWS V14.00,2013-09-21 14:31:00,
2013-09-21 10:36:00,76.6,65.3,29.68,North,0,0.0,0.0,68,0.00,,---,0.00,VWS V14.00,2013-09-21 14:36:00,
2013-09-21 10:41:00,77.0,64.8,29.68,North,0,0.0,0.0,66,0.00,,---,0.00,VWS V14.00,2013-09-21 14:41:00,
2013-09-21 10:46:00,77.2,64.5,29.71,North,0,0.0,0.0,65,0.00,,---,0.00,VWS V14.00,2013-09-21 14:46:00,
2013-09-21 10:51:00,77.4,63.3,29.71,North,0,0.0,0.0,62,0.00,,---,0.00,VWS V14.00,2013-09-21 14:51:00,
2013-09-21 10:56:00,77.7,62.3,29.71,North,0,0.0,0.0,59,0.00,,---,0.00,VWS V14.00,2013-09-21 14:56:00,
2013-09-21 11:01:00,77.9,61.0,29.68,North,0,0.0,0.0,56,0.00,,---,0.00,VWS V14.00,2013-09-21 15:01:00,
2013-09-21 11:06:00,78.1,60.6,29.68,North,0,0.0,0.0,55,0.00,,---,0.00,VWS V14.00,2013-09-21 15:06:00,
2013-09-21 11:11:00,78.3,60.3,29.68,North,0,0.0,0.0,54,0.00,,---,0.00,VWS V14.00,2013-09-21 15:11:00,
2013-09-21 11:16:00,78.6,59.5,29.71,North,0,0.0,0.0,52,0.00,,---,0.00,VWS V14.00,2013-09-21 15:16:00,
2013-09-21 11:21:00,78.8,58.0,29.71,North,0,0.0,0.0,49,0.00,,---,0.00,VWS V14.00,2013-09-21 15:21:00,
2013-09-21 11:26:00,79.0,57.0,29.71,North,0,0.0,0.0,47,0.00,,---,0.00,VWS V14.00,2013-09-21 15:26:00,
2013-09-21 11:31:00,79.2,57.2,29.71,North,0,0.0,0.0,47,0.00,,---,0.00,VWS V14.00,2013-09-21 15:31:00,
2013-09-21 11:36:00,79.3,56.8,29.71,North,0,0.0,0.0,46,0.00,,---,0.00,VWS V14.00,2013-09-21 15:36:00,
2013-09-21 11:41:00,79.5,56.3,29.71,North,0,0.0,0.0,45,0.00,,---,0.00,VWS V14.00,2013-09-21 15:41:00,
2013-09-21 11:46:00,79.9,55.4,29.68,North,0,0.0,0.0,43,0.00,,---,0.00,VWS V14.00,2013-09-21 15:46:00,
2013-09-21 11:51:00,80.2,55.7,29.68,North,0,0.0,0.0,43,0.00,,---,0.00,VWS V14.00,2013-09-21 15:51:00,
2013-09-21 11:56:00,80.6,56.1,29.68,North,0,0.0,0.0,43,0.00,,---,0.00,VWS V14.00,2013-09-21 15:56:00,
2013-09-21 12:01:00,81.0,54.4,29.68,North,0,0.0,0.0,40,0.00,,---,0.00,VWS V14.00,2013-09-21 16:01:00,
2013-09-21 12:06:00,81.1,53.9,29.68,North,0,0.0,0.0,39,0.00,,---,0.00,VWS V14.00,2013-09-21 16:06:00,
2013-09-21 12:11:00,81.1,53.9,29.68,North,0,0.0,0.0,39,0.00,,---,0.00,VWS V14.00,2013-09-21 16:11:00,
2013-09-21 12:16:00,81.7,55.0,29.68,North,0,0.0,0.0,40,0.00,,---,0.00,VWS V14.00,2013-09-21 16:16:00,
2013-09-21 12:21:00,81.7,55.0,29.68,North,0,0.0,0.0,40,0.00,,---,0.00,VWS V14.00,2013-09-21 16:21:00,
2013-09-21 12:26:00,81.5,54.2,29.68,North,0,0.0,0.0,39,0.00,,---,0.00,VWS V14.00,2013-09-21 16:26:00,
2013-09-21 12:31:00,81.7,52.2,29.68,North,0,0.0,0.0,36,0.00,,---,0.00,VWS V14.00,2013-09-21 16:31:00,
2013-09-21 12:36:00,81.9,49.1,29.68,North,0,0.0,0.0,32,0.00,,---,0.00,VWS V14.00,2013-09-21 16:36:00,
2013-09-21 12:41:00,82.4,49.6,29.68,North,0,0.0,0.0,32,0.00,,---,0.00,VWS V14.00,2013-09-21 16:41:00,
2013-09-21 12:46:00,82.8,50.8,29.68,North,0,0.0,0.0,33,0.00,,---,0.00,VWS V14.00,2013-09-21 16:46:00,
2013-09-21 12:51:00,83.3,52.0,29.68,North,0,0.0,0.0,34,0.00,,---,0.00,VWS V14.00,2013-09-21 16:51:00,
2013-09-21 12:56:00,83.8,52.5,29.68,North,0,0.0,0.0,34,0.00,,---,0.00,VWS V14.00,2013-09-21 16:56:00,
2013-09-21 13:01:00,84.2,50.3,29.68,North,0,0.0,0.0,31,0.00,,---,0.00,VWS V14.00,2013-09-21 17:01:00,
2013-09-21 13:06:00,84.6,53.1,29.68,North,0,0.0,0.0,34,0.00,,---,0.00,VWS V14.00,2013-09-21 17:06:00,
2013-09-21 13:11:00,84.2,52.0,29.68,North,0,0.0,0.0,33,0.00,,---,0.00,VWS V14.00,2013-09-21 17:11:00,
2013-09-21 13:16:00,84.4,49.6,29.68,North,0,0.0,0.0,30,0.00,,---,0.00,VWS V14.00,2013-09-21 17:16:00,
2013-09-21 13:21:00,84.7,50.8,29.68,North,0,0.0,0.0,31,0.00,,---,0.00,VWS V14.00,2013-09-21 17:21:00,
2013-09-21 13:26:00,85.6,52.4,29.68,North,0,0.0,0.0,32,0.00,,---,0.00,VWS V14.00,2013-09-21 17:26:00,
2013-09-21 13:31:00,86.2,52.0,29.68,North,0,0.0,0.0,31,0.00,,---,0.00,VWS V14.00,2013-09-21 17:31:00,
2013-09-21 13:36:00,86.5,51.5,29.68,North,0,0.0,0.0,30,0.00,,---,0.00,VWS V14.00,2013-09-21 17:36:00,
2013-09-21 13:41:00,86.7,50.7,29.68,North,0,0.0,0.0,29,0.00,,---,0.00,VWS V14.00,2013-09-21 17:41:00,
2013-09-21 13:46:00,86.7,50.7,29.65,North,0,0.0,0.0,29,0.00,,---,0.00,VWS V14.00,2013-09-21 17:46:00,
2013-09-21 13:51:00,86.9,50.8,29.65,North,0,0.0,0.0,29,0.00,,---,0.00,VWS V14.00,2013-09-21 17:51:00,
2013-09-21 13:56:00,86.2,50.2,29.65,North,0,0.0,0.0,29,0.00,,---,0.00,VWS V14.00,2013-09-21 17:56:00,
2013-09-21 14:01:00,85.6,49.8,29.65,North,0,0.0,0.0,29,0.00,,---,0.00,VWS V14.00,2013-09-21 18:01:00,
2013-09-21 14:06:00,85.5,49.6,29.65,North,0,0.0,0.0,29,0.00,,---,0.00,VWS V14.00,2013-09-21 18:06:00,
2013-09-21 14:11:00,85.1,49.3,29.65,North,0,0.0,0.0,29,0.00,,---,0.00,VWS V14.00,2013-09-21 18:11:00,
2013-09-21 14:16:00,84.7,49.0,29.65,North,0,0.0,0.0,29,0.00,,---,0.00,VWS V14.00,2013-09-21 18:16:00,
2013-09-21 14:21:00,84.9,48.2,29.65,North,0,0.0,0.0,28,0.00,,---,0.00,VWS V14.00,2013-09-21 18:21:00,
2013-09-21 14:26:00,84.6,47.9,29.65,North,0,0.0,0.0,28,0.00,,---,0.00,VWS V14.00,2013-09-21 18:26:00,
2013-09-21 14:31:00,84.9,48.2,29.65,North,0,0.0,0.0,28,0.00,,---,0.00,VWS V14.00,2013-09-21 18:31:00,
2013-09-21 14:36:00,86.0,49.1,29.65,North,0,0.0,0.0,28,0.00,,---,0.00,VWS V14.00,2013-09-21 18:36:00,
2013-09-21 14:41:00,86.4,50.4,29.65,North,0,0.0,0.0,29,0.00,,---,0.00,VWS V14.00,2013-09-21 18:41:00,
2013-09-21 14:46:00,85.8,49.9,29.62,North,0,0.0,0.0,29,0.00,,---,0.00,VWS V14.00,2013-09-21 18:46:00,
2013-09-21 14:51:00,85.5,48.7,29.62,North,0,0.0,0.0,28,0.00,,---,0.00,VWS V14.00,2013-09-21 18:51:00,
2013-09-21 14:56:00,86.0,49.1,29.62,North,0,0.0,0.0,28,0.00,,---,0.00,VWS V14.00,2013-09-21 18:56:00,
2013-09-21 15:01:00,86.2,49.3,29.62,North,0,0.0,0.0,28,0.00,,---,0.00,VWS V14.00,2013-09-21 19:01:00,
2013-09-21 15:06:00,86.0,49.1,29.62,North,0,0.0,0.0,28,0.00,,---,0.00,VWS V14.00,2013-09-21 19:06:00,
2013-09-21 15:11:00,85.5,49.6,29.62,North,0,0.0,0.0,29,0.00,,---,0.00,VWS V14.00,2013-09-21 19:11:00,
2013-09-21 15:16:00,85.6,49.8,29.62,North,0,0.0,0.0,29,0.00,,---,0.00,VWS V14.00,2013-09-21 19:16:00,
2013-09-21 15:21:00,86.5,50.5,29.62,North,0,0.0,0.0,29,0.00,,---,0.00,VWS V14.00,2013-09-21 19:21:00,
2013-09-21 15:26:00,86.4,50.4,29.62,North,0,0.0,0.0,29,0.00,,---,0.00,VWS V14.00,2013-09-21 19:26:00,
2013-09-21 15:31:00,86.0,50.1,29.62,North,0,0.0,0.0,29,0.00,,---,0.00,VWS V14.00,2013-09-21 19:31:00,
2013-09-21 15:36:00,85.5,49.6,29.62,North,0,0.0,0.0,29,0.00,,---,0.00,VWS V14.00,2013-09-21 19:36:00,
2013-09-21 15:41:00,86.0,50.1,29.62,North,0,0.0,0.0,29,0.00,,---,0.00,VWS V14.00,2013-09-21 19:41:00,
2013-09-21 15:46:00,86.2,50.2,29.59,North,0,0.0,0.0,29,0.00,,---,0.00,VWS V14.00,2013-09-21 19:46:00,
2013-09-21 15:51:00,85.5,49.6,29.59,North,0,0.0,0.0,29,0.00,,---,0.00,VWS V14.00,2013-09-21 19:51:00,
2013-09-21 15:56:00,85.1,50.2,29.59,North,0,0.0,0.0,30,0.00,,---,0.00,VWS V14.00,2013-09-21 19:56:00,
2013-09-21 16:01:00,85.5,50.5,29.59,North,0,0.0,0.0,30,0.00,,---,0.00,VWS V14.00,2013-09-21 20:01:00,
2013-09-21 16:06:00,85.5,50.5,29.59,North,0,0.0,0.0,30,0.00,,---,0.00,VWS V14.00,2013-09-21 20:06:00,
2013-09-21 16:11:00,85.6,50.7,29.59,North,0,0.0,0.0,30,0.00,,---,0.00,VWS V14.00,2013-09-21 20:11:00,
2013-09-21 16:16:00,86.2,51.1,29.59,North,0,0.0,0.0,30,0.00,,---,0.00,VWS V14.00,2013-09-21 20:16:00,
2013-09-21 16:21:00,86.2,50.2,29.59,North,0,0.0,0.0,29,0.00,,---,0.00,VWS V14.00,2013-09-21 20:21:00,
2013-09-21 16:26:00,86.4,51.3,29.59,North,0,0.0,0.0,30,0.00,,---,0.00,VWS V14.00,2013-09-21 20:26:00,
2013-09-21 16:31:00,86.4,50.4,29.59,North,0,0.0,0.0,29,0.00,,---,0.00,VWS V14.00,2013-09-21 20:31:00,
2013-09-21 16:36:00,86.2,49.3,29.59,North,0,0.0,0.0,28,0.00,,---,0.00,VWS V14.00,2013-09-21 20:36:00,
2013-09-21 16:41:00,86.4,50.4,29.59,North,0,0.0,0.0,29,0.00,,---,0.00,VWS V14.00,2013-09-21 20:41:00,
2013-09-21 16:46:00,86.4,50.4,29.59,North,0,0.0,0.0,29,0.00,,---,0.00,VWS V14.00,2013-09-21 20:46:00,
2013-09-21 16:51:00,86.0,50.1,29.59,North,0,0.0,0.0,29,0.00,,---,0.00,VWS V14.00,2013-09-21 20:51:00,
2013-09-21 16:56:00,85.3,49.5,29.59,North,0,0.0,0.0,29,0.00,,---,0.00,VWS V14.00,2013-09-21 20:56:00,
2013-09-21 17:01:00,84.7,49.0,29.59,North,0,0.0,0.0,29,0.00,,---,0.00,VWS V14.00,2013-09-21 21:01:00,
2013-09-21 17:06:00,84.0,49.3,29.59,North,0,0.0,0.0,30,0.00,,---,0.00,VWS V14.00,2013-09-21 21:06:00,
2013-09-21 17:11:00,83.5,48.8,29.59,North,0,0.0,0.0,30,0.00,,---,0.00,VWS V14.00,2013-09-21 21:11:00,
2013-09-21 17:16:00,83.1,48.5,29.59,North,0,0.0,0.0,30,0.00,,---,0.00,VWS V14.00,2013-09-21 21:16:00,
2013-09-21 17:21:00,82.8,49.1,29.59,North,0,0.0,0.0,31,0.00,,---,0.00,VWS V14.00,2013-09-21 21:21:00,
2013-09-21 17:26:00,82.4,48.8,29.59,North,0,0.0,0.0,31,0.00,,---,0.00,VWS V14.00,2013-09-21 21:26:00,
2013-09-21 17:31:00,82.8,49.9,29.56,North,0,0.0,0.0,32,0.00,,---,0.00,VWS V14.00,2013-09-21 21:31:00,
2013-09-21 17:37:00,82.9,50.1,29.56,North,0,0.0,0.0,32,0.00,,---,0.00,VWS V14.00,2013-09-21 21:37:00,
2013-09-21 17:42:00,82.8,50.8,29.59,North,0,0.0,0.0,33,0.00,,---,0.00,VWS V14.00,2013-09-21 21:42:00,
2013-09-21 17:47:00,82.6,49.8,29.59,North,0,0.0,0.0,32,0.00,,---,0.00,VWS V14.00,2013-09-21 21:47:00,
2013-09-21 17:52:00,82.8,50.8,29.59,North,0,0.0,0.0,33,0.00,,---,0.00,VWS V14.00,2013-09-21 21:52:00,
2013-09-21 17:57:00,83.1,51.1,29.56,North,0,0.0,0.0,33,0.00,,---,0.00,VWS V14.00,2013-09-21 21:57:00,
2013-09-21 18:02:00,83.5,51.4,29.56,North,0,0.0,0.0,33,0.00,,---,0.00,VWS V14.00,2013-09-21 22:02:00,
2013-09-21 18:07:00,83.7,51.5,29.56,North,0,0.0,0.0,33,0.00,,---,0.00,VWS V14.00,2013-09-21 22:07:00,
2013-09-21 18:12:00,83.3,50.4,29.56,North,0,0.0,0.0,32,0.00,,---,0.00,VWS V14.00,2013-09-21 22:12:00,
2013-09-21 18:17:00,82.8,49.9,29.56,North,0,0.0,0.0,32,0.00,,---,0.00,VWS V14.00,2013-09-21 22:17:00,
2013-09-21 18:22:00,82.4,49.6,29.56,North,0,0.0,0.0,32,0.00,,---,0.00,VWS V14.00,2013-09-21 22:22:00,
2013-09-21 18:27:00,81.9,49.1,29.56,North,0,0.0,0.0,32,0.00,,---,0.00,VWS V14.00,2013-09-21 22:27:00,
2013-09-21 18:32:00,81.7,49.8,29.56,North,0,0.0,0.0,33,0.00,,---,0.00,VWS V14.00,2013-09-21 22:32:00,
2013-09-21 18:37:00,81.3,49.5,29.56,North,0,0.0,0.0,33,0.00,,---,0.00,VWS V14.00,2013-09-21 22:37:00,
2013-09-21 18:42:00,80.8,49.8,29.59,North,0,0.0,0.0,34,0.00,,---,0.00,VWS V14.00,2013-09-21 22:42:00,
2013-09-21 18:47:00,80.4,50.3,29.59,North,0,0.0,0.0,35,0.00,,---,0.00,VWS V14.00,2013-09-21 22:47:00,
2013-09-21 18:52:00,80.1,50.0,29.59,North,0,0.0,0.0,35,0.00,,---,0.00,VWS V14.00,2013-09-21 22:52:00,
2013-09-21 18:57:00,79.7,50.4,29.56,North,0,0.0,0.0,36,0.00,,---,0.00,VWS V14.00,2013-09-21 22:57:00,
2013-09-21 19:02:00,79.3,50.1,29.56,North,0,0.0,0.0,36,0.00,,---,0.00,VWS V14.00,2013-09-21 23:02:00,
2013-09-21 19:07:00,79.0,50.5,29.56,North,0,0.0,0.0,37,0.00,,---,0.00,VWS V14.00,2013-09-21 23:07:00,
2013-09-21 19:12:00,78.6,50.9,29.59,North,0,0.0,0.0,38,0.00,,---,0.00,VWS V14.00,2013-09-21 23:12:00,
2013-09-21 19:17:00,78.4,51.5,29.59,North,0,0.0,0.0,39,0.00,,---,0.00,VWS V14.00,2013-09-21 23:17:00,
2013-09-21 19:22:00,78.1,51.8,29.59,North,0,0.0,0.0,40,0.00,,---,0.00,VWS V14.00,2013-09-21 23:22:00,
2013-09-21 19:27:00,77.7,52.2,29.59,North,0,0.0,0.0,41,0.00,,---,0.00,VWS V14.00,2013-09-21 23:27:00,
2013-09-21 19:32:00,77.5,52.0,29.59,North,0,0.0,0.0,41,0.00,,---,0.00,VWS V14.00,2013-09-21 23:32:00,
2013-09-21 19:37:00,77.2,51.7,29.59,North,0,0.0,0.0,41,0.00,,---,0.00,VWS V14.00,2013-09-21 23:37:00,
2013-09-21 19:42:00,77.0,52.2,29.59,North,0,0.0,0.0,42,0.00,,---,0.00,VWS V14.00,2013-09-21 23:42:00,
2013-09-21 19:47:00,77.0,52.2,29.59,North,0,0.0,0.0,42,0.00,,---,0.00,VWS V14.00,2013-09-21 23:47:00,
2013-09-21 19:52:00,76.8,52.7,29.59,North,0,0.0,0.0,43,0.00,,---,0.00,VWS V14.00,2013-09-21 23:52:00,
2013-09-21 19:57:00,76.6,53.1,29.59,North,0,0.0,0.0,44,0.00,,---,0.00,VWS V14.00,2013-09-21 23:57:00,
2013-09-21 20:02:00,76.6,53.1,29.59,North,0,0.0,0.0,44,0.00,,---,0.00,VWS V14.00,2013-09-22 00:02:00,
2013-09-21 20:07:00,76.5,53.0,29.59,North,0,0.0,0.0,44,0.00,,---,0.00,VWS V14.00,2013-09-22 00:07:00,
2013-09-21 20:12:00,76.5,53.6,29.56,North,0,0.0,0.0,45,0.00,,---,0.00,VWS V14.00,2013-09-22 00:12:00,
2013-09-21 20:17:00,76.5,53.6,29.56,North,0,0.0,0.0,45,0.00,,---,0.00,VWS V14.00,2013-09-22 00:17:00,
2013-09-21 20:22:00,76.3,53.4,29.56,North,0,0.0,0.0,45,0.00,,---,0.00,VWS V14.00,2013-09-22 00:22:00,
2013-09-21 20:27:00,76.3,54.0,29.59,North,0,0.0,0.0,46,0.00,,---,0.00,VWS V14.00,2013-09-22 00:27:00,
2013-09-21 20:32:00,76.1,53.8,29.59,North,0,0.0,0.0,46,0.00,,---,0.00,VWS V14.00,2013-09-22 00:32:00,
2013-09-21 20:38:00,76.1,53.8,29.59,North,0,0.0,0.0,46,0.00,,---,0.00,VWS V14.00,2013-09-22 00:38:00,
2013-09-21 20:43:00,75.9,54.3,29.56,North,0,0.0,0.0,47,0.00,,---,0.00,VWS V14.00,2013-09-22 00:43:00,
2013-09-21 20:48:00,75.7,54.1,29.56,North,0,0.0,0.0,47,0.00,,---,0.00,VWS V14.00,2013-09-22 00:48:00,
2013-09-21 20:53:00,75.6,53.9,29.56,North,0,0.0,0.0,47,0.00,,---,0.00,VWS V14.00,2013-09-22 00:53:00,
2013-09-21 20:58:00,75.4,53.8,29.59,North,0,0.0,0.0,47,0.00,,---,0.00,VWS V14.00,2013-09-22 00:58:00,
2013-09-21 21:03:00,75.4,54.3,29.59,North,0,0.0,0.0,48,0.00,,---,0.00,VWS V14.00,2013-09-22 01:03:00,
2013-09-21 21:08:00,75.2,54.2,29.59,North,0,0.0,0.0,48,0.00,,---,0.00,VWS V14.00,2013-09-22 01:08:00,
2013-09-21 21:13:00,75.0,54.6,29.59,North,0,0.0,0.0,49,0.00,,---,0.00,VWS V14.00,2013-09-22 01:13:00,
2013-09-21 21:18:00,75.0,54.6,29.59,North,0,0.0,0.0,49,0.00,,---,0.00,VWS V14.00,2013-09-22 01:18:00,
2013-09-21 21:23:00,74.8,55.0,29.59,North,0,0.0,0.0,50,0.00,,---,0.00,VWS V14.00,2013-09-22 01:23:00,
2013-09-21 21:28:00,74.8,55.0,29.59,North,0,0.0,0.0,50,0.00,,---,0.00,VWS V14.00,2013-09-22 01:28:00,
2013-09-21 21:33:00,74.8,55.0,29.59,North,0,0.0,0.0,50,0.00,,---,0.00,VWS V14.00,2013-09-22 01:33:00,
2013-09-21 21:38:00,75.0,56.2,29.59,North,0,0.0,0.0,52,0.00,,---,0.00,VWS V14.00,2013-09-22 01:38:00,
2013-09-21 21:43:00,75.0,56.2,29.59,North,0,0.0,0.0,52,0.00,,---,0.00,VWS V14.00,2013-09-22 01:43:00,
2013-09-21 21:48:00,75.0,56.8,29.59,North,0,0.0,0.0,53,0.00,,---,0.00,VWS V14.00,2013-09-22 01:48:00,
2013-09-21 21:53:00,75.0,56.8,29.59,North,0,0.0,0.0,53,0.00,,---,0.00,VWS V14.00,2013-09-22 01:53:00,
2013-09-21 21:58:00,75.0,56.8,29.59,North,0,0.0,0.0,53,0.00,,---,0.00,VWS V14.00,2013-09-22 01:58:00,
2013-09-21 22:03:00,75.0,56.8,29.59,North,0,0.0,0.0,53,0.00,,---,0.00,VWS V14.00,2013-09-22 02:03:00,
2013-09-21 22:08:00,75.0,57.3,29.59,North,0,0.0,0.0,54,0.00,,---,0.00,VWS V14.00,2013-09-22 02:08:00,
2013-09-21 22:13:00,75.0,56.8,29.59,North,0,0.0,0.0,53,0.00,,---,0.00,VWS V14.00,2013-09-22 02:13:00,
2013-09-21 22:18:00,75.0,56.8,29.59,North,0,0.0,0.0,53,0.00,,---,0.00,VWS V14.00,2013-09-22 02:18:00,
2013-09-21 22:23:00,74.8,56.6,29.59,North,0,0.0,0.0,53,0.00,,---,0.00,VWS V14.00,2013-09-22 02:23:00,
2013-09-21 22:29:00,74.8,56.0,29.59,North,0,0.0,0.0,52,0.00,,---,0.00,VWS V14.00,2013-09-22 02:29:00,
2013-09-21 22:34:00,74.8,56.0,29.59,North,0,0.0,0.0,52,0.00,,---,0.00,VWS V14.00,2013-09-22 02:34:00,
2013-09-21 22:39:00,74.7,55.9,29.59,North,0,0.0,0.0,52,0.00,,---,0.00,VWS V14.00,2013-09-22 02:39:00,
2013-09-21 22:44:00,74.7,55.9,29.59,North,0,0.0,0.0,52,0.00,,---,0.00,VWS V14.00,2013-09-22 02:44:00,
2013-09-21 22:49:00,74.7,55.9,29.59,North,0,0.0,0.0,52,0.00,,---,0.00,VWS V14.00,2013-09-22 02:49:00,
2013-09-21 22:54:00,74.7,55.9,29.59,North,0,0.0,0.0,52,0.00,,---,0.00,VWS V14.00,2013-09-22 02:54:00,
2013-09-21 22:59:00,74.5,56.2,29.62,North,0,0.0,0.0,53,0.00,,---,0.00,VWS V14.00,2013-09-22 02:59:00,
2013-09-21 23:04:00,74.5,56.2,29.62,North,0,0.0,0.0,53,0.00,,---,0.00,VWS V14.00,2013-09-22 03:04:00,
2013-09-21 23:09:00,74.5,56.2,29.62,North,0,0.0,0.0,53,0.00,,---,0.00,VWS V14.00,2013-09-22 03:09:00,
2013-09-21 23:14:00,74.5,56.2,29.59,North,0,0.0,0.0,53,0.00,,---,0.00,VWS V14.00,2013-09-22 03:14:00,
2013-09-21 23:19:00,74.5,55.7,29.59,North,0,0.0,0.0,52,0.00,,---,0.00,VWS V14.00,2013-09-22 03:19:00,
2013-09-21 23:24:00,74.5,55.7,29.59,North,0,0.0,0.0,52,0.00,,---,0.00,VWS V14.00,2013-09-22 03:24:00,
2013-09-21 23:29:00,74.5,55.7,29.59,North,0,0.0,0.0,52,0.00,,---,0.00,VWS V14.00,2013-09-22 03:29:00,
2013-09-21 23:34:00,74.5,55.7,29.59,North,0,0.0,0.0,52,0.00,,---,0.00,VWS V14.00,2013-09-22 03:34:00,
2013-09-21 23:39:00,74.5,55.7,29.59,North,0,0.0,0.0,52,0.00,,---,0.00,VWS V14.00,2013-09-22 03:39:00,
2013-09-21 23:44:00,74.5,55.7,29.59,North,0,0.0,0.0,52,0.00,,---,0.00,VWS V14.00,2013-09-22 03:44:00,
2013-09-21 23:49:00,74.5,55.7,29.59,North,0,0.0,0.0,52,0.00,,---,0.00,VWS V14.00,2013-09-22 03:49:00,
2013-09-21 23:54:00,74.5,55.7,29.59,North,0,0.0,0.0,52,0.00,,---,0.00,VWS V14.00,2013-09-22 03:54:00,
2013-09-21 23:59:00,74.5,55.7,29.59,North,0,0.0,0.0,52,0.00,,---,0.00,VWS V14.00,2013-09-22 03:59:00,